Terminal Aerodrome Forecast
Issued by NWS Pueblo, CO

Home | Current Version | Previous Version | Text Only | Print | Product List | Glossary On
Versions: 1 2 3 4 5 6 7 8 9 10 11 12 13 14 15 16
000
FTUS45 KPUB 271120
TAFALS
TAF
KALS 271120Z 2712/2812 VRB06KT P6SM FEW120
     FM271900 01007KT P6SM SCT120 SCT200
     FM280200 VRB06KT P6SM SCT200=

USA.gov is the U.S. government's official web portal to all federal, state and local government web resources and services.